When you browse on this site, cookies collect data to enhance your experience and personalize the content and advertising you see.
Visit our Privacy Policy to learn more. By continuing to use the site, you agree to this use of cookies and data.
  • In Romania
  • List of Countries
  • For 7 days
  • Water Temperature
  • Satellite Maps
  • Weather Map
  • Weather Widgets
  • user-avatar
    Login

    Hourly Weather Larisa

    Today, 19 July, Friday

    Time Temperature Precipitation Wind Pressure Humidity
    00:00 +22°C° 0 mm 0 mps 753 mmHg 57%
    01:00 +22°C° 0 mm 0 mps 753 mmHg 58%
    02:00 +22°C° 0 mm 0 mps 753 mmHg 58%
    03:00 +21°C° 0 mm 0 mps 753 mmHg 59%
    04:00 +21°C° 0 mm 0 mps 753 mmHg 60%
    05:00 +22°C° 0 mm 0 mps 753 mmHg 57%
    06:00 +24°C° 0 mm 0 mps 754 mmHg 54%
    07:00 +25°C° 0 mm 0 mps 754 mmHg 51%
    08:00 +28°C° 0 mm 1 mps 754 mmHg 47%
    09:00 +30°C° 0 mm 1 mps 754 mmHg 42%
    10:00 +31°C° 0 mm 1 mps 754 mmHg 38%
    11:00 +32°C° 0 mm 2 mps 754 mmHg 36%
    12:00 +32°C° 0 mm 2 mps 754 mmHg 35%
    13:00 +34°C° 0 mm 2 mps 754 mmHg 34%
    14:00 +32°C° 0.1 mm 2 mps 754 mmHg 36%
    15:00 +33°C° 0.1 mm 3 mps 754 mmHg 37%
    16:00 +33°C° 0.1 mm 3 mps 754 mmHg 39%
    17:00 +30°C° 0 mm 2 mps 754 mmHg 43%
    18:00 +28°C° 0 mm 2 mps 754 mmHg 47%
    19:00 +27°C° 0 mm 1 mps 754 mmHg 51%
    20:00 +26°C° 0 mm 1 mps 755 mmHg 53%
    21:00 +26°C° 0 mm 1 mps 755 mmHg 54%
    22:00 +23°C° 0 mm 0 mps 755 mmHg 55%
    23:00 +23°C° 0 mm 0 mps 755 mmHg 57%

    Tomorrow, 20 July, Saturday

    Time Temperature Precipitation Wind Pressure Humidity
    00:00 +22°C° 0 mm 0 mps 755 mmHg 58%
    01:00 +24°C° 0 mm 1 mps 755 mmHg 59%
    02:00 +24°C° 0 mm 1 mps 755 mmHg 60%
    03:00 +23°C° 0 mm 1 mps 755 mmHg 62%
    04:00 +23°C° 0 mm 1 mps 755 mmHg 63%
    05:00 +22°C° 0 mm 0 mps 755 mmHg 60%
    06:00 +24°C° 0 mm 0 mps 755 mmHg 57%
    07:00 +25°C° 0 mm 0 mps 756 mmHg 53%
    08:00 +27°C° 0 mm 0 mps 756 mmHg 49%
    09:00 +30°C° 0 mm 1 mps 756 mmHg 44%
    10:00 +32°C° 0 mm 1 mps 756 mmHg 39%
    11:00 +33°C° 0 mm 1 mps 756 mmHg 37%
    12:00 +34°C° 0 mm 1 mps 756 mmHg 34%
    13:00 +34°C° 0 mm 1 mps 756 mmHg 31%
    14:00 +35°C° 0 mm 2 mps 756 mmHg 31%
    15:00 +35°C° 0 mm 2 mps 755 mmHg 30%
    16:00 +35°C° 0 mm 3 mps 755 mmHg 30%
    17:00 +32°C° 0 mm 2 mps 755 mmHg 35%
    18:00 +30°C° 0 mm 2 mps 756 mmHg 40%
    19:00 +28°C° 0 mm 2 mps 756 mmHg 45%
    20:00 +27°C° 0 mm 1 mps 756 mmHg 46%
    21:00 +27°C° 0 mm 1 mps 756 mmHg 48%
    22:00 +24°C° 0 mm 0 mps 757 mmHg 49%
    23:00 +24°C° 0 mm 0 mps 757 mmHg 49%

    Day after tomorrow, 21 July, Sunday

    Time Temperature Precipitation Wind Pressure Humidity
    00:00 +23°C° 0 mm 0 mps 757 mmHg 50%
    01:00 +25°C° 0 mm 1 mps 757 mmHg 50%
    02:00 +23°C° 0 mm 0 mps 757 mmHg 52%
    03:00 +22°C° 0 mm 0 mps 756 mmHg 55%
    04:00 +22°C° 0 mm 0 mps 756 mmHg 57%
    05:00 +23°C° 0 mm 0 mps 757 mmHg 53%
    06:00 +25°C° 0 mm 0 mps 757 mmHg 49%
    07:00 +26°C° 0 mm 0 mps 757 mmHg 46%
    08:00 +28°C° 0 mm 0 mps 757 mmHg 41%
    09:00 +32°C° 0 mm 1 mps 757 mmHg 37%
    10:00 +33°C° 0 mm 1 mps 757 mmHg 32%
    11:00 +34°C° 0 mm 1 mps 757 mmHg 31%
    12:00 +36°C° 0 mm 2 mps 757 mmHg 29%
    13:00 +36°C° 0 mm 2 mps 757 mmHg 28%
    14:00 +36°C° 0 mm 2 mps 757 mmHg 28%
    15:00 +36°C° 0 mm 3 mps 756 mmHg 28%
    16:00 +36°C° 0 mm 3 mps 756 mmHg 28%
    17:00 +34°C° 0 mm 3 mps 756 mmHg 32%
    18:00 +31°C° 0 mm 2 mps 756 mmHg 37%
    19:00 +29°C° 0 mm 2 mps 756 mmHg 41%
    20:00 +28°C° 0 mm 1 mps 757 mmHg 42%
    21:00 +28°C° 0 mm 1 mps 757 mmHg 44%
    22:00 +25°C° 0 mm 0 mps 757 mmHg 46%
    23:00 +25°C° 0 mm 0 mps 757 mmHg 46%

    22 July, Monday

    Time Temperature Precipitation Wind Pressure Humidity
    00:00 +24°C° 0 mm 0 mps 757 mmHg 46%
    01:00 +26°C° 0 mm 1 mps 757 mmHg 47%
    02:00 +26°C° 0 mm 1 mps 757 mmHg 49%
    03:00 +23°C° 0 mm 0 mps 757 mmHg 51%
    04:00 +23°C° 0 mm 0 mps 757 mmHg 53%
    05:00 +24°C° 0 mm 0 mps 757 mmHg 49%
    06:00 +28°C° 0 mm 1 mps 757 mmHg 46%
    07:00 +29°C° 0 mm 1 mps 757 mmHg 42%
    08:00 +31°C° 0 mm 1 mps 757 mmHg 38%
    09:00 +33°C° 0 mm 1 mps 757 mmHg 34%
    10:00 +35°C° 0 mm 1 mps 757 mmHg 30%
    11:00 +36°C° 0 mm 2 mps 757 mmHg 29%
    12:00 +37°C° 0 mm 2 mps 756 mmHg 27%
    13:00 +37°C° 0 mm 3 mps 756 mmHg 26%
    14:00 +37°C° 0 mm 3 mps 756 mmHg 26%
    15:00 +37°C° 0 mm 3 mps 756 mmHg 26%
    16:00 +37°C° 0 mm 3 mps 755 mmHg 26%
    17:00 +35°C° 0 mm 3 mps 755 mmHg 30%
    18:00 +32°C° 0 mm 2 mps 755 mmHg 34%
    19:00 +31°C° 0 mm 1 mps 755 mmHg 38%
    20:00 +30°C° 0 mm 1 mps 755 mmHg 39%
    21:00 +29°C° 0 mm 1 mps 755 mmHg 41%
    22:00 +26°C° 0 mm 0 mps 755 mmHg 42%
    23:00 +28°C° 0 mm 1 mps 755 mmHg 43%

    23 July, Tuesday

    Time Temperature Precipitation Wind Pressure Humidity
    00:00 +28°C° 0 mm 1 mps 755 mmHg 43%
    01:00 +28°C° 0 mm 1 mps 755 mmHg 44%
    02:00 +27°C° 0 mm 1 mps 755 mmHg 45%
    03:00 +27°C° 0 mm 1 mps 754 mmHg 47%
    04:00 +26°C° 0 mm 1 mps 754 mmHg 48%
    05:00 +28°C° 0 mm 1 mps 754 mmHg 46%
    06:00 +29°C° 0 mm 1 mps 754 mmHg 43%
    07:00 +31°C° 0 mm 1 mps 754 mmHg 40%
    08:00 +32°C° 0 mm 1 mps 754 mmHg 37%
    09:00 +34°C° 0 mm 1 mps 754 mmHg 33%
    10:00 +36°C° 0 mm 1 mps 754 mmHg 30%
    11:00 +38°C° 0 mm 2 mps 754 mmHg 28%
    12:00 +38°C° 0 mm 2 mps 753 mmHg 27%
    13:00 +39°C° 0 mm 3 mps 753 mmHg 26%
    14:00 +39°C° 0 mm 3 mps 753 mmHg 26%
    15:00 +38°C° 0 mm 2 mps 752 mmHg 27%
    16:00 +38°C° 0 mm 2 mps 752 mmHg 28%
    17:00 +36°C° 0 mm 2 mps 752 mmHg 31%
    18:00 +34°C° 0 mm 1 mps 752 mmHg 34%
    19:00 +33°C° 0 mm 1 mps 752 mmHg 37%
    20:00 +32°C° 0 mm 1 mps 752 mmHg 38%
    21:00 +31°C° 0 mm 1 mps 752 mmHg 39%
    22:00 +31°C° 0 mm 1 mps 752 mmHg 40%
    23:00 +30°C° 0 mm 1 mps 752 mmHg 41%

    24 July, Wednesday

    Time Temperature Precipitation Wind Pressure Humidity
    00:00 +29°C° 0 mm 1 mps 752 mmHg 42%
    01:00 +28°C° 0 mm 1 mps 752 mmHg 43%
    02:00 +28°C° 0 mm 1 mps 752 mmHg 44%
    03:00 +27°C° 0 mm 1 mps 752 mmHg 45%
    04:00 +27°C° 0 mm 1 mps 752 mmHg 46%
    05:00 +28°C° 0 mm 1 mps 752 mmHg 46%
    06:00 +29°C° 0 mm 1 mps 752 mmHg 45%
    07:00 +30°C° 0 mm 2 mps 753 mmHg 44%
    08:00 +31°C° 0 mm 2 mps 753 mmHg 42%
    09:00 +32°C° 0 mm 2 mps 753 mmHg 40%
    10:00 +35°C° 0 mm 2 mps 753 mmHg 38%
    11:00 +35°C° 0 mm 3 mps 752 mmHg 39%
    12:00 +35°C° 0 mm 3 mps 752 mmHg 39%
    13:00 +35°C° 0 mm 4 mps 752 mmHg 40%
    14:00 +35°C° 0 mm 4 mps 751 mmHg 40%
    15:00 +34°C° 0 mm 5 mps 751 mmHg 41%
    16:00 +34°C° 0 mm 5 mps 751 mmHg 42%
    17:00 +33°C° 0 mm 4 mps 751 mmHg 46%
    18:00 +30°C° 0 mm 2 mps 751 mmHg 50%
    19:00 +28°C° 0 mm 1 mps 751 mmHg 54%
    20:00 +28°C° 0 mm 1 mps 751 mmHg 55%
    21:00 +28°C° 0 mm 1 mps 751 mmHg 56%
    22:00 +27°C° 0 mm 1 mps 752 mmHg 57%
    23:00 +25°C° 0 mm 0 mps 751 mmHg 57%
    Show more